Tracking 31027 objects as of 19-Jul-2025
HD Live streaming from Space Station
objects crossing your sky now

STARLINK-3523

Track STARLINK-3523 now!
10-day predictions
STARLINK-3523 is classified as:


NORAD ID: 51729
Int'l Code: 2022-016R
Perigee: 546.0 km
Apogee: 547.8 km
Inclination: 53.2 °
Period: 95.4 minutes
Semi major axis: 6917 km
RCS: Unknown
Launch date: February 21, 2022
Source: United States (US)
Launch site: AIR FORCE EASTERN TEST RANGE (AFETR)
Your satellite tracking list
Your tracking list is empty




NASA's NSSDC Master Catalog

Two Line Element Set (TLE):
1 51729U 22016R   25199.52659652 -.00000004  00000-0  17845-4 0  9995
2 51729  53.2180 290.3199 0001279  85.7265 274.3873 15.08833928189357
Source of the keplerian elements: AFSPC